Wind_Speed
8 8 8 7 7 5 4 3 1 1 3 4 5 6 6 6 7 7 7 7 7 7 8 8 8 9 9 10 10 11 11 12 12 12 12 12 12 11 11 11 11 11 11 12 12 12 13 14 14
7 7 7 7 6 5 4 3 2 0 2 3 4 5 5 6 6 6 7 7 7 7 8 8 9 10 10 11 11 12 12 12 12 12 12 12 12 12 12 12 11 11 11 11 12 12 12 13 13
6 6 6 5 4 3 3 2 1 1 2 3 4 5 6 6 6 7 7 8 9 9 10 10 11 11 12 12 13 13 13 13 13 13 13 12 12 12 12 12 12 12 12 12 12 12 12 13 13
5 5 5 4 3 2 2 2 2 3 4 5 6 7 7 7 8 9 9 10 11 11 12 12 13 13 14 14 14 14 14 14 14 14 13 13 13 13 13 13 13 12 12 12 13 13 13 13 14
5 5 5 4 3 3 3 3 3 5 6 7 8 9 10 9 10 11 12 13 13 13 14 14 15 15 15 15 16 15 15 15 15 14 14 14 14 14 14 13 13 13 13 13 13 14 14 14 14
5 5 5 5 4 4 4 4 5 6 7 8 9 11 12 11 11 12 13 14 14 15 15 16 16 17 17 17 17 17 16 16 16 15 15 15 15 15 14 14 14 14 14 14 14 14 14 14 14
6 6 6 6 6 5 5 6 6 7 7 8 9 11 12 11 12 13 14 15 16 16 16 17 17 18 18 18 18 18 18 18 17 17 16 16 16 15 15 15 15 15 15 15 15 15 15 15 15
8 8 8 8 8 7 7 7 7 8 9 8 9 10 12 13 13 14 15 16 16 17 17 18 18 19 19 19 19 19 19 19 19 18 18 17 17 17 17 17 17 17 17 17 17 17 17 17 18
11 11 10 10 10 10 9 9 9 10 10 9 8 10 12 14 15 15 15 16 16 17 18 18 19 20 20 20 20 20 20 20 20 20 19 19 19 19 19 19 19 19 19 19 20 20 20 20 21
14 14 13 12 11 12 12 12 12 11 12 10 9 11 13 15 16 16 16 16 17 18 18 19 20 20 21 21 21 21 21 21 21 21 21 21 21 21 21 22 22 22 22 23 23 23 23 24 24
17 17 16 16 14 14 14 14 14 13 13 12 12 13 14 16 17 17 18 18 19 19 20 21 21 21 21 22 22 23 23 23 24 24 24 24 24 24 24 25 25 26 26 26 27 27 27 28 28
19 20 19 19 18 17 17 17 16 15 14 14 14 15 16 17 18 18 18 19 20 21 21 21 22 22 23 23 24 25 25 26 26 26 27 27 27 28 28 28 29 29 30 30 31 31 32 32 32
20 21 21 21 20 20 19 19 19 18 17 17 17 17 18 18 19 19 19 20 20 21 22 22 22 23 24 25 26 27 28 28 29 29 30 30 31 31 32 32 33 34 34 35 35 36 36 37 37
21 22 22 22 21 21 21 22 21 19 18 19 18 19 19 20 20 21 21 21 21 22 23 23 24 24 25 26 27 28 29 30 31 32 32 33 34 35 36 36 37 38 39 40 40 40 41 42 42
21 22 23 22 22 21 22 23 21 19 18 19 20 20 20 20 21 21 21 21 21 22 23 24 25 25 26 27 28 29 30 31 32 33 34 35 36 37 38 39 40 42 43 43 44 44 45 46 47
22 22 23 23 22 21 21 23 21 18 17 18 19 20 20 20 21 21 21 21 22 22 23 24 25 26 27 28 29 29 30 31 32 34 35 36 38 39 40 41 42 44 45 46 47 48 48 49 50
22 22 23 23 21 20 20 21 21 17 16 18 19 19 20 20 20 21 21 21 22 22 23 23 24 25 26 27 28 29 30 32 33 34 36 37 38 40 41 42 43 45 46 47 48 49 50 51 52
22 21 22 22 19 18 18 19 19 17 17 18 19 19 20 21 21 22 22 23 23 24 24 25 25 26 27 28 28 29 30 32 33 34 36 38 39 40 42 43 44 46 47 48 50 51 52 53 54
21 21 20 20 18 17 16 16 17 18 18 18 19 20 21 22 23 23 24 25 25 26 27 27 28 28 28 29 29 30 30 32 33 35 36 38 39 40 42 42 44 46 47 48 50 52 53 54 56
20 19 19 18 17 16 16 16 17 17 18 19 21 22 23 24 25 26 27 27 28 29 29 29 29 29 30 30 30 30 31 32 34 35 36 38 39 40 42 43 45 47 48 50 51 53 54 55 57
19 18 18 18 18 17 16 16 17 18 19 21 23 24 25 26 27 28 29 29 30 30 30 30 30 29 29 29 29 30 30 32 33 35 36 38 39 41 42 44 46 47 49 51 52 54 56 57 59
19 18 18 18 19 18 18 18 18 19 21 23 24 26 27 27 28 29 29 30 30 30 29 29 29 28 28 28 29 30 30 32 33 35 36 38 40 41 43 45 47 49 50 52 54 56 58 60 61
19 19 19 19 20 19 20 21 20 21 22 24 25 27 27 28 28 29 29 30 29 29 28 28 27 27 27 28 29 30 32 33 34 36 38 39 41 43 45 47 49 51 53 54 56 59 61 63 64
21 21 21 21 21 20 21 22 22 21 23 25 26 26 27 28 28 29 29 29 29 28 27 26 26 27 28 29 30 31 33 34 36 38 39 41 43 46 48 50 52 54 56 58 60 62 64 66 67
22 22 23 22 21 21 22 23 23 23 24 25 26 27 28 28 29 29 29 28 27 27 27 26 27 28 29 31 32 34 35 37 39 41 42 45 47 49 52 54 56 58 60 62 64 66 68 70 71
24 24 25 25 23 22 23 24 24 24 25 26 27 28 29 29 29 28 28 28 27 27 28 29 30 31 32 34 36 38 39 41 43 46 48 50 52 54 56 59 61 64 66 68 70 72 74 75 76
25 25 26 27 26 25 25 24 25 25 27 28 29 29 29 29 28 28 28 28 28 29 31 32 33 35 36 38 40 42 44 46 48 50 53 55 58 60 62 65 67 69 72 74 76 78 79 81 81
27 27 27 27 29 29 26 25 26 27 28 29 30 30 29 29 29 29 29 29 31 33 34 36 37 39 40 42 44 47 49 51 54 56 58 61 63 66 68 71 73 75 77 79 81 82 83 84 84
28 28 29 30 31 31 30 27 28 30 31 31 31 31 30 30 31 31 32 33 35 37 38 39 41 43 45 47 49 52 54 57 59 61 64 66 69 71 74 76 79 81 83 84 85 85 85 85 85
31 30 30 31 32 33 33 31 30 32 32 33 33 32 32 32 33 34 35 37 39 40 42 44 45 47 50 52 54 57 59 62 64 66 69 72 74 76 79 81 83 85 86 87 86 86 85 85 84
Wind_Direction
47 51 55 54 53 55 56 55 65 182 217 218 216 211 209 212 215 221 223 224 226 230 237 242 247 251 254 258 261 263 264 265 266 267 266 266 266 265 264 263 263 263 263 263 263 262 261 260 259
46 49 49 49 48 47 47 48 59 67 232 221 215 211 207 207 208 210 216 224 229 236 243 249 253 257 260 263 265 266 267 268 268 268 267 267 267 266 265 266 266 266 265 265 264 264 262 262 261
38 41 46 46 42 35 32 23 359 295 253 238 231 227 223 220 220 223 228 234 241 245 250 255 259 262 265 267 268 269 269 268 268 268 268 268 268 267 267 267 267 267 266 266 265 263 263 263 264
24 27 29 32 25 9 349 331 294 275 263 256 251 248 242 238 237 239 242 245 249 254 257 261 264 266 267 269 269 269 269 269 268 268 268 268 268 269 268 268 267 266 265 265 264 264 266 267 267
1 5 8 7 2 341 317 301 280 270 267 264 261 258 256 251 250 251 252 253 255 258 260 262 265 266 268 269 270 269 269 268 269 268 267 267 268 268 267 267 266 265 264 264 264 265 266 267 268
336 338 342 341 334 322 309 305 292 280 276 272 268 266 266 262 258 259 259 260 261 262 263 264 266 267 268 268 269 269 268 268 268 268 267 267 267 266 265 265 266 264 263 263 263 264 265 266 267
308 313 317 319 318 314 308 302 295 289 285 280 274 269 274 274 269 265 264 264 265 266 266 267 268 268 269 269 269 268 268 268 267 267 267 267 266 265 264 265 265 263 262 262 263 265 266 267 268
296 299 301 304 306 306 307 304 298 293 291 288 279 274 276 280 278 273 271 269 269 268 268 267 267 268 268 267 267 267 268 268 267 267 266 266 265 264 263 263 264 263 262 263 265 266 267 269 270
288 290 291 296 299 301 303 302 300 297 294 293 285 275 273 275 277 277 276 274 271 270 269 267 267 267 267 267 266 266 267 267 266 265 265 264 264 264 263 263 264 264 264 265 266 267 269 270 272
282 284 286 290 293 296 298 298 299 298 298 298 288 275 275 277 279 279 278 276 274 272 270 268 267 267 267 266 265 265 266 265 265 264 264 264 264 263 263 263 264 264 264 265 266 268 269 270 272
278 279 282 285 287 290 292 294 295 297 297 297 291 286 282 279 278 278 277 275 274 272 271 270 270 269 267 266 265 265 264 263 263 263 263 264 264 263 263 264 264 264 265 266 267 268 269 270 272
275 277 280 282 284 284 286 288 291 292 293 293 289 286 283 281 280 279 277 275 274 273 273 273 272 270 268 267 265 264 263 263 263 263 264 264 264 264 264 264 264 265 266 267 268 269 270 271 272
276 277 278 280 283 284 284 285 287 289 290 288 286 283 281 281 281 282 280 278 276 276 276 275 274 272 270 269 267 266 265 265 265 265 265 265 265 265 265 266 266 267 267 268 269 270 271 272 273
276 276 277 278 281 283 284 284 286 288 288 285 283 281 280 280 281 282 282 281 280 279 278 277 276 274 273 271 270 269 268 268 268 268 267 267 267 267 267 267 268 268 269 270 270 271 272 273 274
276 276 277 277 279 281 282 283 286 288 286 283 282 281 282 283 283 283 283 282 281 280 279 279 278 277 275 274 273 273 272 272 271 271 270 270 270 270 270 270 270 270 271 271 272 273 274 274 275
275 275 276 277 279 281 281 282 285 287 285 283 284 285 286 286 286 285 285 283 282 281 280 280 279 279 278 277 277 276 275 275 274 273 273 272 272 272 272 273 273 273 274 274 274 274 275 275 276
273 273 274 276 278 279 280 282 287 289 285 284 285 287 288 288 287 287 287 286 285 284 283 282 282 281 281 281 280 279 278 278 277 276 276 275 275 275 275 276 276 276 276 276 276 276 276 276 277
272 272 273 275 278 278 279 281 287 288 285 284 285 286 287 288 288 288 288 288 288 287 286 285 285 284 283 282 282 281 281 280 280 280 279 279 278 278 278 278 278 278 279 279 279 279 279 279 278
271 271 271 273 274 275 277 278 280 282 283 283 284 285 285 286 287 287 288 288 288 287 287 286 285 284 284 284 284 284 284 284 283 283 284 283 283 283 283 283 283 283 282 282 281 281 281 280 280
269 269 269 271 273 274 274 275 275 277 280 281 282 283 284 285 286 287 288 288 289 288 288 287 286 285 285 285 285 285 285 285 285 285 286 286 286 286 286 286 285 284 284 284 284 283 283 283 282
266 265 267 271 274 274 273 272 274 277 279 280 281 282 284 286 287 288 289 289 290 289 289 289 288 287 287 287 287 287 287 287 286 287 287 287 287 287 287 287 287 287 286 286 285 285 284 284 283
263 265 266 269 272 274 276 276 276 278 280 280 282 284 285 287 287 288 288 289 290 290 290 289 290 290 291 291 291 290 290 290 290 289 289 289 289 289 289 288 288 288 288 287 286 286 285 285 284
264 266 267 268 271 274 278 280 280 281 282 283 284 285 286 287 287 288 288 289 289 290 290 290 291 292 292 293 293 293 293 292 292 292 292 292 291 291 290 289 289 289 288 288 287 286 286 285 285
265 267 268 270 272 276 279 282 284 285 285 285 285 286 286 287 288 288 288 288 288 289 290 291 292 293 294 294 295 295 295 295 295 294 294 293 293 292 291 291 291 290 290 289 288 287 287 286 285
266 268 271 271 273 277 281 282 286 288 287 287 287 287 287 288 289 287 287 287 288 289 290 292 293 294 294 295 296 296 297 297 296 296 295 295 294 294 293 293 292 292 291 290 289 288 287 286 285
266 269 272 275 277 279 281 284 288 290 289 288 287 288 288 289 287 286 286 286 286 288 291 293 295 296 297 297 297 298 298 298 297 297 296 296 295 294 294 293 293 292 291 290 289 288 287 286 284
266 269 272 276 278 280 281 285 287 289 288 288 288 288 288 287 286 285 285 284 286 289 292 294 296 298 298 298 298 299 299 299 298 298 297 297 296 295 295 294 293 292 292 290 289 288 287 286 284
267 269 272 275 279 281 281 284 288 289 288 288 288 288 287 286 286 285 284 286 288 291 294 296 297 298 299 299 299 300 300 299 299 299 298 298 297 297 296 295 294 293 292 291 290 289 287 286 284
268 271 273 275 278 282 283 285 290 290 288 288 287 287 286 286 285 285 286 288 291 294 296 298 299 299 300 300 300 300 300 300 300 300 299 299 298 297 297 296 296 295 294 293 292 290 288 286 285
268 270 272 276 278 281 284 289 291 289 287 286 286 286 285 285 285 286 288 291 294 296 298 299 300 300 301 301 302 302 302 301 301 301 300 300 299 299 298 298 297 296 295 294 293 291 289 287 285
Height
5861 5860 5861 5861 5862 5861 5861 5861 5861 5861 5862 5862 5862 5863 5863 5864 5865 5868 5867 5866 5866 5867 5867 5868 5868 5868 5868 5869 5869 5869 5869 5869 5868 5868 5868 5868 5868 5868 5868 5868 5869 5869 5869 5870 5870 5870 5871 5871 5871
5862 5862 5862 5862 5862 5862 5862 5861 5861 5862 5862 5862 5862 5862 5862 5863 5863 5864 5864 5865 5865 5865 5866 5866 5866 5867 5867 5867 5867 5867 5866 5866 5866 5866 5866 5866 5866 5866 5866 5866 5866 5866 5866 5867 5867 5867 5868 5868 5868
5862 5862 5863 5862 5862 5862 5862 5862 5862 5862 5862 5862 5862 5862 5862 5862 5862 5863 5863 5863 5864 5864 5864 5864 5865 5864 5864 5864 5864 5864 5864 5864 5864 5863 5863 5863 5863 5863 5863 5863 5863 5863 5863 5864 5864 5864 5865 5865 5865
5863 5863 5863 5863 5862 5862 5861 5861 5861 5861 5862 5862 5862 5861 5861 5862 5862 5862 5862 5862 5862 5862 5862 5862 5862 5862 5862 5862 5862 5861 5861 5861 5861 5861 5860 5860 5860 5860 5860 5860 5860 5860 5861 5861 5861 5861 5862 5862 5862
5863 5863 5863 5862 5862 5861 5861 5860 5860 5860 5860 5861 5861 5860 5860 5860 5860 5860 5860 5860 5860 5860 5860 5860 5860 5859 5859 5859 5859 5859 5858 5858 5858 5858 5858 5857 5857 5857 5857 5857 5857 5857 5858 5858 5858 5858 5859 5859 5859
5863 5863 5863 5862 5861 5861 5860 5860 5860 5859 5859 5859 5859 5858 5858 5858 5858 5858 5858 5858 5857 5857 5857 5857 5857 5857 5856 5856 5856 5856 5855 5855 5855 5855 5854 5854 5854 5854 5854 5854 5854 5854 5855 5855 5855 5855 5855 5855 5856
5863 5862 5862 5861 5860 5860 5860 5859 5858 5858 5858 5858 5857 5857 5856 5856 5856 5855 5855 5855 5854 5854 5854 5854 5854 5854 5853 5853 5853 5853 5852 5852 5852 5851 5851 5851 5851 5851 5851 5851 5851 5851 5851 5851 5851 5852 5852 5852 5852
5861 5862 5860 5860 5859 5859 5858 5857 5857 5857 5856 5856 5855 5855 5854 5853 5852 5852 5852 5851 5851 5851 5851 5851 5850 5850 5850 5850 5849 5849 5849 5849 5848 5848 5848 5848 5848 5847 5847 5847 5847 5847 5847 5848 5848 5848 5848 5848 5848
5860 5861 5858 5858 5857 5857 5856 5856 5856 5855 5854 5854 5853 5853 5852 5850 5849 5849 5848 5848 5847 5847 5847 5847 5846 5846 5846 5846 5846 5845 5845 5845 5844 5844 5844 5844 5844 5844 5844 5843 5843 5843 5843 5843 5843 5843 5843 5843 5843
5858 5857 5857 5856 5856 5855 5854 5854 5853 5853 5852 5852 5851 5850 5848 5847 5846 5845 5845 5844 5844 5843 5843 5842 5842 5842 5842 5841 5841 5841 5841 5840 5840 5840 5840 5840 5840 5839 5839 5839 5839 5839 5839 5839 5838 5838 5838 5838 5838
5855 5854 5854 5853 5853 5852 5852 5851 5851 5850 5849 5849 5848 5847 5845 5844 5843 5842 5841 5840 5839 5839 5838 5838 5838 5837 5837 5837 5837 5836 5836 5835 5835 5835 5835 5835 5835 5834 5834 5834 5834 5834 5833 5833 5833 5833 5832 5832 5832
5852 5851 5850 5850 5850 5849 5849 5848 5847 5847 5847 5846 5845 5843 5842 5841 5839 5838 5838 5837 5836 5834 5834 5833 5833 5833 5832 5832 5832 5831 5831 5830 5830 5830 5829 5829 5829 5829 5829 5828 5828 5828 5827 5827 5827 5826 5826 5826 5825
5848 5847 5846 5846 5846 5845 5845 5844 5844 5843 5843 5842 5841 5839 5838 5837 5835 5835 5834 5833 5831 5830 5829 5829 5828 5828 5827 5827 5826 5826 5825 5825 5824 5824 5823 5823 5823 5822 5822 5822 5822 5821 5821 5820 5820 5819 5819 5818 5817
5844 5843 5842 5842 5841 5841 5841 5839 5840 5840 5839 5838 5836 5835 5834 5832 5831 5830 5829 5828 5827 5826 5825 5823 5823 5822 5822 5821 5820 5820 5819 5819 5818 5818 5817 5817 5816 5816 5815 5815 5814 5814 5813 5812 5812 5811 5811 5810 5809
5839 5839 5838 5838 5837 5837 5837 5835 5835 5835 5834 5833 5832 5830 5829 5828 5827 5826 5825 5824 5823 5821 5820 5819 5818 5817 5816 5815 5815 5814 5813 5812 5812 5811 5810 5809 5809 5808 5807 5807 5806 5805 5804 5804 5803 5803 5802 5801 5799
5835 5835 5834 5834 5833 5833 5834 5832 5831 5831 5830 5828 5827 5826 5824 5823 5822 5821 5820 5819 5818 5817 5815 5814 5813 5811 5810 5810 5809 5808 5807 5806 5805 5804 5803 5802 5801 5800 5799 5798 5797 5796 5795 5794 5794 5793 5792 5790 5789
5831 5831 5829 5829 5829 5829 5828 5827 5826 5827 5825 5824 5823 5821 5820 5819 5818 5817 5815 5814 5813 5812 5810 5809 5808 5806 5805 5804 5803 5802 5800 5799 5797 5796 5795 5794 5792 5791 5790 5789 5788 5786 5785 5784 5783 5782 5780 5779 5777
5827 5826 5825 5825 5825 5825 5824 5823 5822 5822 5821 5820 5819 5817 5816 5815 5814 5812 5811 5809 5808 5807 5805 5804 5803 5801 5800 5798 5797 5795 5794 5792 5790 5789 5787 5785 5784 5783 5781 5780 5778 5776 5775 5774 5772 5770 5769 5768 5765
5822 5822 5821 5821 5821 5821 5820 5820 5819 5818 5817 5816 5815 5813 5812 5811 5809 5808 5806 5805 5803 5801 5800 5798 5797 5795 5794 5792 5790 5789 5787 5785 5783 5781 5779 5777 5776 5774 5772 5771 5769 5767 5765 5763 5761 5758 5757 5755 5752
5818 5818 5817 5817 5817 5817 5817 5817 5816 5815 5814 5812 5811 5809 5808 5806 5805 5803 5801 5799 5798 5796 5794 5792 5791 5789 5787 5785 5784 5782 5780 5778 5775 5773 5771 5769 5767 5765 5763 5761 5759 5756 5754 5752 5749 5746 5744 5742 5738
5814 5814 5813 5813 5813 5813 5814 5814 5813 5811 5810 5808 5806 5805 5803 5802 5800 5798 5796 5794 5792 5790 5787 5785 5784 5782 5780 5778 5776 5774 5773 5770 5768 5766 5764 5761 5759 5756 5753 5751 5748 5745 5742 5740 5737 5733 5730 5727 5724
5810 5809 5809 5809 5809 5809 5810 5810 5809 5807 5806 5804 5802 5800 5798 5796 5794 5792 5790 5788 5786 5784 5781 5779 5777 5775 5773 5771 5770 5768 5766 5764 5761 5759 5756 5753 5750 5747 5744 5741 5737 5734 5731 5728 5724 5720 5716 5712 5709
5805 5805 5805 5805 5804 5805 5804 5804 5805 5802 5801 5799 5796 5794 5792 5790 5788 5786 5784 5782 5780 5777 5775 5773 5771 5769 5767 5765 5763 5761 5758 5756 5753 5750 5748 5744 5741 5737 5734 5730 5726 5723 5719 5715 5711 5706 5702 5697 5693
5800 5801 5800 5800 5800 5801 5800 5799 5798 5797 5795 5793 5791 5788 5786 5784 5782 5780 5778 5775 5773 5771 5769 5767 5765 5763 5761 5758 5756 5753 5751 5748 5745 5742 5739 5735 5731 5727 5722 5718 5714 5710 5705 5701 5696 5691 5686 5681 5677
5796 5796 5796 5795 5795 5796 5794 5793 5793 5791 5789 5787 5785 5782 5780 5778 5776 5774 5771 5769 5767 5765 5763 5761 5759 5757 5754 5751 5748 5746 5743 5740 5736 5733 5729 5725 5720 5716 5710 5705 5701 5695 5690 5685 5679 5674 5669 5663 5658
5790 5791 5791 5790 5790 5790 5788 5787 5788 5785 5783 5780 5778 5776 5774 5771 5769 5767 5765 5763 5761 5759 5757 5754 5752 5749 5747 5744 5740 5737 5733 5730 5726 5722 5717 5713 5708 5703 5697 5691 5686 5680 5674 5667 5661 5655 5649 5643 5637
5785 5784 5784 5784 5782 5783 5783 5782 5781 5779 5776 5774 5772 5769 5767 5765 5762 5760 5758 5756 5754 5752 5749 5747 5744 5741 5738 5735 5731 5727 5723 5719 5714 5709 5704 5699 5694 5688 5682 5675 5669 5662 5655 5648 5641 5635 5628 5621 5615
5779 5779 5779 5777 5776 5776 5777 5776 5775 5772 5769 5767 5765 5762 5760 5758 5756 5753 5751 5749 5747 5744 5742 5739 5736 5732 5729 5725 5721 5716 5712 5707 5701 5696 5690 5684 5678 5671 5665 5658 5650 5643 5635 5626 5618 5611 5604 5596 5591
5772 5773 5771 5770 5770 5769 5768 5772 5769 5765 5762 5760 5757 5755 5753 5751 5748 5746 5744 5741 5739 5736 5733 5729 5726 5722 5718 5713 5709 5704 5699 5693 5687 5681 5674 5667 5660 5653 5645 5637 5629 5621 5612 5602 5594 5586 5578 5571 5564
5765 5765 5765 5764 5763 5761 5760 5765 5761 5757 5754 5752 5750 5748 5745 5743 5740 5738 5735 5733 5730 5726 5723 5719 5715 5711 5706 5701 5696 5690 5684 5678 5672 5664 5657 5649 5641 5633 5624 5615 5606 5597 5587 5577 5567 5559 5551 5544 5538